Hollywood, FL

1:39 AM EDT on October 16, 2019 (GMT -0400)
North Perry

Weather History for KHWO - August, 2019

Change the Weather History Date:

Tuesday, August 27, 2019

  Actual Average (KFLL) Record (KFLL)
Temperature  
Mean Temperature 87 °F 84 °F  
Max Temperature 96 °F 90 °F 97 °F (1954)
Min Temperature 79 °F 78 °F 69 °F (1922)
Degree Days  
Heating Degree Days 0 0  
Month to date heating degree days 0  
Since 1 June heating degree days 0  
Since 1 July heating degree days 0  
Cooling Degree Days 22 19  
Month to date cooling degree days 532  
Year to date cooling degree days 3091  
Since 1 June cooling degree days 1673  
Growing Degree Days 37 (Base 50)    
Moisture  
Dew Point 75 °F    
Average Humidity 71    
Maximum Humidity 90    
Minimum Humidity 50    
Precipitation  
Precipitation 0.02 in 0.27 in 4.75 in (1964)
Month to date precipitation 6.35  
Year to date precipitation 39.98  
Snow  
Snow 0.00 in - - ()
Month to date snowfall  
Since 1 June snowfall  
Since 1 July snowfall  
Snow Depth -    
Sea Level Pressure  
Sea Level Pressure 29.98 in    
Wind  
Wind Speed 4 mph (WNW)    
Max Wind Speed 18 mph    
Max Gust Speed -    
Visibility 10 miles    
Events Rain , Thunderstorm    
T = Trace of Precipitation, MM = Missing Value Source: NWS Daily Summary

Daily Weather History Graph

Daily Weather History Graph

Search for Another Location

Airport or City:

Astronomy

Aug. 27, 2019 Rise Set
Actual Time 6:58 AM EDT 7:45 PM EDT
Civil Twilight 6:35 AM EDT 8:09 PM EDT
Nautical Twilight 6:07 AM EDT 8:37 PM EDT
Astronomical Twilight 5:39 AM EDT 9:05 PM EDT
Moon 3:42 AM EDT (8/27) 5:45 PM EDT (8/27)
Length of Visible Light 13h 33m
Length of Day
12h 46m
Waning Crescent, 11% of the Moon is Illuminated
Aug 27
Waning Crescent
Aug 30
New
Sep 5
First Quarter
Sep 14
Full
Sep 21
Last Quarter

Hourly Weather History & Observations

Time (EDT) Temp. Heat Index Dew Point Humidity Pressure Visibility Wind Dir Wind Speed Gust Speed Precip Events Conditions
12:53 AM 81.0 °F 87.9 °F 77.0 °F 88% 30.01 in 10.0 mi Calm Calm - N/A   Clear
1:53 AM 81.0 °F 87.9 °F 77.0 °F 88% 30.00 in 10.0 mi Calm Calm - N/A   Clear
2:53 AM 81.0 °F 87.3 °F 75.9 °F 85% 29.98 in 10.0 mi Calm Calm - N/A   Clear
3:53 AM 80.1 °F 85.4 °F 75.9 °F 87% 29.96 in 10.0 mi Calm Calm - N/A   Clear
4:53 AM 80.1 °F 85.4 °F 75.9 °F 87% 29.95 in 10.0 mi Calm Calm - N/A   Scattered Clouds
5:53 AM 79.0 °F - 75.9 °F 90% 29.96 in 10.0 mi Calm Calm - N/A   Clear
6:53 AM 80.1 °F 85.4 °F 75.9 °F 87% 29.96 in 10.0 mi Calm Calm - N/A   Clear
7:53 AM 82.0 °F 91.6 °F 79.0 °F 90% 29.98 in 10.0 mi SW 4.6 mph - N/A   Clear
8:53 AM 84.9 °F 96.6 °F 78.1 °F 80% 29.99 in 10.0 mi WSW 4.6 mph - N/A   Clear
9:53 AM 87.1 °F 98.8 °F 77.0 °F 72% 30.02 in 10.0 mi West 5.8 mph - N/A   Scattered Clouds
10:09 AM 87.1 °F 97.3 °F 75.9 °F 69% 30.02 in 10.0 mi West 3.5 mph - N/A   Mostly Cloudy
10:35 AM 89.1 °F 100.2 °F 75.9 °F 65% 30.02 in 10.0 mi West 6.9 mph - N/A   Scattered Clouds
10:53 AM 89.1 °F 99.1 °F 75.0 °F 63% 30.02 in 10.0 mi WNW 10.4 mph - N/A   Partly Cloudy
11:53 AM 91.0 °F 101.6 °F 75.0 °F 59% 30.01 in 10.0 mi Variable 4.6 mph - N/A   Partly Cloudy
12:53 PM 93.0 °F 103.2 °F 73.9 °F 54% 30.00 in 10.0 mi WNW 10.4 mph - N/A   Partly Cloudy
1:28 PM 93.0 °F 101.9 °F 73.0 °F 52% 29.99 in 10.0 mi NW 11.5 mph - N/A Thunderstorm Partly Cloudy
1:53 PM 93.9 °F 103.4 °F 73.0 °F 51% 29.98 in 10.0 mi West 10.4 mph - N/A Thunderstorm Clear
2:06 PM 93.9 °F 103.4 °F 73.0 °F 51% 29.98 in 10.0 mi NW 6.9 mph - N/A   Partly Cloudy
2:53 PM 95.0 °F 105.2 °F 73.9 °F 50% 29.95 in 10.0 mi West 10.4 mph - N/A   Scattered Clouds
3:28 PM 93.0 °F 101.9 °F 73.0 °F 52% 29.94 in 10.0 mi NW 8.1 mph - N/A Thunderstorm Scattered Clouds
3:53 PM 93.0 °F 100.7 °F 72.0 °F 50% 29.94 in 10.0 mi WNW 6.9 mph - N/A Thunderstorm Scattered Clouds
4:01 PM 93.0 °F 104.6 °F 75.0 °F 56% 29.94 in 10.0 mi ESE 8.1 mph - N/A   Scattered Clouds
4:16 PM 89.1 °F 99.1 °F 75.0 °F 63% 29.94 in 10.0 mi South 9.2 mph - N/A Thunderstorm Thunderstorm
4:41 PM 90.0 °F 99.0 °F 73.9 °F 59% 29.94 in 10.0 mi SSE 6.9 mph - N/A Thunderstorm Scattered Clouds
4:53 PM 89.1 °F 98.0 °F 73.9 °F 61% 29.94 in 10.0 mi South 8.1 mph - N/A Thunderstorm Mostly Cloudy
5:16 PM 82.9 °F 88.8 °F 73.0 °F 72% 29.95 in 9.0 mi WNW 18.4 mph - 0.01 in Rain Rain
5:23 PM 81.0 °F 85.2 °F 72.0 °F 74% 29.94 in 9.0 mi WNW 15.0 mph - 0.02 in Rain , Thunderstorm Light Thunderstorms and Rain
6:16 PM 79.0 °F - 73.9 °F 84% 29.96 in 10.0 mi North 10.4 mph - 0.01 in Rain Light Rain
6:53 PM 80.1 °F 85.1 °F 75.0 °F 85% 29.97 in 10.0 mi North 5.8 mph - 0.02 in   Scattered Clouds
7:53 PM 81.0 °F 86.2 °F 73.9 °F 79% 29.98 in 10.0 mi Calm Calm - 0.00 in   Scattered Clouds
8:53 PM 81.0 °F 86.7 °F 75.0 °F 82% 29.98 in 10.0 mi NW 5.8 mph - N/A   Clear
9:53 PM 82.0 °F 88.6 °F 75.0 °F 79% 30.00 in 10.0 mi Calm Calm - N/A   Clear
10:53 PM 81.0 °F 86.2 °F 73.9 °F 79% 29.99 in 10.0 mi WNW 3.5 mph - N/A   Clear
11:53 PM 81.0 °F 86.7 °F 75.0 °F 82% 29.98 in 10.0 mi Calm Calm - N/A   Clear